Torna al catalogo

SL-3 DEB

AttivoPO
NORAD 15521·DEBRIS·🇷🇺 Russia

Lanciato Oct 28, 1974 da Plesetsk Cosmodrome

Loading…

Prossimi Passaggi (prossime 24 ore)

TLE

AggiornatoSource: Space-Track

Epoca: Sep 13, 2026, 15:17 UTC

1 15521U 74083C   26256.63718422  .00000056  00000-0  24664-4 0  9997
2 15521  81.2118 100.9589 0055833 222.0403 201.9647 14.09700505670795

Traccia SL-3 DEB in tempo reale con AllMySat

Download on the App Store